China Lake, CA

2:08 PM PST on January 19, 2018 (GMT -0800)
China Lake NAWS

Weather History for KNID - September, 2013

Change the Weather History Date:

Sunday, September 15, 2013

  Actual Average Record
Temperature  
Mean Temperature 83 °F -  
Max Temperature 102 °F 91 °F 104 °F (2014)
Min Temperature 66 °F 63 °F 51 °F (2007)
Cooling Degree Days 18    
Growing Degree Days 33 (Base 50)    
Moisture  
Dew Point 42 °F    
Average Humidity 24    
Maximum Humidity 44    
Minimum Humidity 10    
Precipitation  
Precipitation 0.00 in - - ()
Sea Level Pressure  
Sea Level Pressure 29.71 in    
Wind  
Wind Speed 7 mph (SSW)    
Max Wind Speed 18 mph    
Max Gust Speed 25 mph    
Visibility 10 miles    
Events      
Averages and records for this station are not official NWS values.
T = Trace of Precipitation, MM = Missing Value Source: NWS Daily Summary

Daily Weather History Graph

Daily Weather History Graph

Search for Another Location

Airport or City:

Trip Planner

Search our weather history database for the weather conditions in past years. The results will help you decide how hot, cold, wet, or windy it might be!

Date:

Astronomy

Sep. 15, 2013 Rise Set
Actual Time 6:33 AM PDT 6:57 PM PDT
Civil Twilight 6:08 AM PDT 7:22 PM PDT
Nautical Twilight 5:38 AM PDT 7:52 PM PDT
Astronomical Twilight 5:07 AM PDT 8:23 PM PDT
Moon 4:22 PM PDT (9/15) 2:23 AM PDT (9/15)
Length of Visible Light 13h 14m
Length of Day
12h 23m
Waxing Gibbous, 83% of the Moon is Illuminated
Sep 15
Waxing Gibbous
Sep 19
Full
Sep 26
Last Quarter
Oct 4
New
Oct 11
First Quarter

Hourly Weather History & Observations

Time (PDT) Temp. Dew Point Humidity Pressure Visibility Wind Dir Wind Speed Gust Speed Precip Events Conditions
12:56 AM 81.0 °F 48.0 °F 31% 29.66 in 10.0 mi South 9.2 mph - N/A   Unknown
1:56 AM 80.1 °F 48.9 °F 34% 29.66 in 10.0 mi South 9.2 mph - N/A   Unknown
2:56 AM 75.0 °F 43.0 °F 32% 29.68 in 10.0 mi WSW 3.5 mph - N/A   Unknown
3:56 AM 72.0 °F 44.1 °F 37% 29.68 in 10.0 mi SSW 4.6 mph - N/A   Unknown
4:56 AM 72.0 °F 45.0 °F 38% 29.70 in 10.0 mi SW 8.1 mph - N/A   Unknown
5:56 AM 70.0 °F 46.9 °F 44% 29.71 in 10.0 mi Calm Calm - N/A   Unknown
6:56 AM 66.9 °F 43.0 °F 42% 29.73 in 10.0 mi Calm Calm - N/A   Unknown
7:56 AM 75.0 °F 46.9 °F 37% 29.75 in 10.0 mi Calm Calm - N/A   Unknown
8:56 AM 81.0 °F 46.9 °F 30% 29.75 in 10.0 mi Calm Calm - N/A   Unknown
9:56 AM 84.9 °F 48.9 °F 29% 29.76 in 10.0 mi WNW 3.5 mph - N/A   Unknown
10:56 AM 91.0 °F 48.9 °F 23% 29.75 in 10.0 mi Calm Calm - N/A   Unknown
11:56 AM 96.1 °F 46.0 °F 18% 29.74 in 10.0 mi Calm Calm - N/A   Unknown
12:56 PM 99.0 °F 37.9 °F 12% 29.73 in 10.0 mi SSW 9.2 mph 18.4 mph N/A   Unknown
1:56 PM 100.9 °F 37.9 °F 11% 29.72 in 10.0 mi South 12.7 mph 23.0 mph N/A   Unknown
2:56 PM 100.0 °F 37.0 °F 11% 29.70 in 10.0 mi South 16.1 mph 25.3 mph N/A   Unknown
3:56 PM 100.9 °F 35.1 °F 10% 29.68 in 10.0 mi SSE 18.4 mph 23.0 mph N/A   Unknown
4:56 PM 100.0 °F 35.1 °F 10% 29.68 in 10.0 mi South 15.0 mph 19.6 mph N/A   Unknown
5:56 PM 99.0 °F 35.1 °F 11% 29.67 in 10.0 mi SSE 13.8 mph 19.6 mph N/A   Unknown
6:56 PM 95.0 °F 35.1 °F 12% 29.68 in 10.0 mi South 10.4 mph - N/A   Unknown
7:56 PM 91.0 °F 39.0 °F 16% 29.70 in 10.0 mi SW 8.1 mph - N/A   Unknown
8:56 PM 84.9 °F 37.9 °F 19% 29.72 in 10.0 mi SSW 9.2 mph - N/A   Unknown
9:56 PM 82.9 °F 39.0 °F 21% 29.73 in 10.0 mi SSW 5.8 mph - N/A   Unknown
10:56 PM 82.0 °F 39.0 °F 22% 29.74 in 10.0 mi SE 3.5 mph - N/A   Unknown
11:56 PM 80.1 °F 37.0 °F 21% 29.75 in 10.0 mi South 6.9 mph - N/A   Unknown